Year,Month,Day,Hour,Minute,Value (Times are PST for windgust in km/hr)
2017,06,08,00,17,1.60
2017,06,08,02,07,1.60
2017,06,08,02,08,1.60
2017,06,08,02,09,3.20
2017,06,08,02,10,1.60
2017,06,08,06,04,3.20
2017,06,08,06,05,1.60
2017,06,08,06,06,3.20
2017,06,08,06,07,3.20
2017,06,08,06,08,3.20
2017,06,08,06,09,3.20
2017,06,08,08,50,3.20
2017,06,08,08,54,1.60
2017,06,08,08,58,1.60
2017,06,08,09,00,3.20
2017,06,08,09,01,1.60
2017,06,08,09,03,1.60
2017,06,08,09,06,1.60
2017,06,08,09,25,1.60
2017,06,08,09,27,3.20
2017,06,08,09,32,1.60
2017,06,08,09,33,3.20
2017,06,08,09,36,1.60
2017,06,08,09,38,1.60
2017,06,08,09,45,3.20
2017,06,08,09,53,1.60
2017,06,08,10,16,1.60
2017,06,08,10,23,1.60
2017,06,08,10,24,3.20
2017,06,08,10,25,1.60
2017,06,08,10,36,1.60
2017,06,08,10,37,1.60
2017,06,08,10,40,1.60
2017,06,08,10,42,1.60
2017,06,08,10,46,3.20
2017,06,08,10,47,3.20
2017,06,08,10,48,1.60
2017,06,08,10,49,3.20
2017,06,08,11,01,1.60
2017,06,08,11,03,1.60
2017,06,08,11,04,3.20
2017,06,08,11,13,3.20
2017,06,08,11,14,3.20
2017,06,08,11,16,1.60
2017,06,08,11,28,3.20
2017,06,08,11,31,1.60
2017,06,08,11,38,1.60
2017,06,08,11,39,4.80
2017,06,08,11,43,3.20
2017,06,08,11,45,1.60
2017,06,08,11,46,3.20
2017,06,08,11,47,6.40
2017,06,08,11,48,8.10
2017,06,08,11,49,8.10
2017,06,08,11,50,4.80
2017,06,08,11,51,3.20
2017,06,08,11,52,1.60
2017,06,08,11,53,6.40
2017,06,08,11,54,4.80
2017,06,08,11,55,8.10
2017,06,08,11,56,11.30
2017,06,08,11,57,8.10
2017,06,08,11,58,11.30
2017,06,08,11,59,6.40
2017,06,08,12,00,3.20
2017,06,08,12,01,4.80
2017,06,08,12,02,6.40
2017,06,08,12,06,1.60
2017,06,08,12,07,1.60
2017,06,08,12,08,4.80
2017,06,08,12,09,8.10
2017,06,08,12,10,6.40
2017,06,08,12,11,6.40
2017,06,08,12,13,3.20
2017,06,08,12,14,4.80
2017,06,08,12,15,3.20
2017,06,08,12,16,3.20
2017,06,08,12,17,6.40
2017,06,08,12,18,3.20
2017,06,08,12,19,6.40
2017,06,08,12,20,6.40
2017,06,08,12,21,4.80
2017,06,08,12,22,6.40
2017,06,08,12,23,3.20
2017,06,08,12,24,6.40
2017,06,08,12,25,8.10
2017,06,08,12,26,3.20
2017,06,08,12,27,4.80
2017,06,08,12,28,4.80
2017,06,08,12,29,9.60
2017,06,08,12,30,8.10
2017,06,08,12,31,11.30
2017,06,08,12,32,8.10
2017,06,08,12,33,4.80
2017,06,08,12,34,11.30
2017,06,08,12,35,6.40
2017,06,08,12,36,14.50
2017,06,08,12,37,4.80
2017,06,08,12,38,16.10
2017,06,08,12,39,9.60
2017,06,08,12,40,8.10
2017,06,08,12,41,6.40
2017,06,08,12,42,8.10
2017,06,08,12,43,14.50
2017,06,08,12,44,8.10
2017,06,08,12,45,6.40
2017,06,08,12,46,3.20
2017,06,08,12,47,9.60
2017,06,08,12,48,6.40
2017,06,08,12,49,11.30
2017,06,08,12,50,19.30
2017,06,08,12,51,19.30
2017,06,08,12,52,20.90
2017,06,08,12,53,14.50
2017,06,08,12,54,16.10
2017,06,08,12,55,22.50
2017,06,08,12,56,19.30
2017,06,08,12,57,9.60
2017,06,08,12,58,24.20
2017,06,08,12,59,14.50
2017,06,08,13,00,16.10
2017,06,08,13,01,16.10
2017,06,08,13,02,20.90
2017,06,08,13,03,29.00
2017,06,08,13,04,24.20
2017,06,08,13,05,20.90
2017,06,08,13,06,17.70
2017,06,08,13,07,24.20
2017,06,08,13,08,22.50
2017,06,08,13,09,19.30
2017,06,08,13,10,27.40
2017,06,08,13,11,24.20
2017,06,08,13,12,27.40
2017,06,08,13,13,22.50
2017,06,08,13,14,22.50
2017,06,08,13,15,17.70
2017,06,08,13,16,19.30
2017,06,08,13,17,20.90
2017,06,08,13,18,30.60
2017,06,08,13,19,22.50
2017,06,08,13,20,14.50
2017,06,08,13,21,17.70
2017,06,08,13,22,17.70
2017,06,08,13,23,17.70
2017,06,08,13,24,14.50
2017,06,08,13,25,20.90
2017,06,08,13,26,22.50
2017,06,08,13,27,25.70
2017,06,08,13,28,30.60
2017,06,08,13,29,24.20
2017,06,08,13,30,24.20
2017,06,08,13,31,27.40
2017,06,08,13,32,14.50
2017,06,08,13,33,33.80
2017,06,08,13,34,32.20
2017,06,08,13,35,16.10
2017,06,08,13,36,19.30
2017,06,08,13,37,17.70
2017,06,08,13,38,20.90
2017,06,08,13,39,25.70
2017,06,08,13,40,19.30
2017,06,08,13,41,25.70
2017,06,08,13,42,20.90
2017,06,08,13,43,25.70
2017,06,08,13,44,32.20
2017,06,08,13,45,29.00
2017,06,08,13,46,35.40
2017,06,08,13,47,22.50
2017,06,08,13,48,27.40
2017,06,08,13,49,33.80
2017,06,08,13,50,30.60
2017,06,08,13,51,19.30
2017,06,08,13,52,27.40
2017,06,08,13,53,17.70
2017,06,08,13,54,35.40
2017,06,08,13,55,29.00
2017,06,08,13,56,32.20
2017,06,08,13,57,30.60
2017,06,08,13,58,35.40
2017,06,08,13,59,32.20
2017,06,08,14,00,27.40
2017,06,08,14,01,46.70
2017,06,08,14,02,29.00
2017,06,08,14,03,30.60
2017,06,08,14,04,40.20
2017,06,08,14,05,25.70
2017,06,08,14,06,33.80
2017,06,08,14,07,22.50
2017,06,08,14,08,35.40
2017,06,08,14,09,35.40
2017,06,08,14,10,40.20
2017,06,08,14,11,37.00
2017,06,08,14,12,25.70
2017,06,08,14,13,25.70
2017,06,08,14,14,27.40
2017,06,08,14,15,37.00
2017,06,08,14,16,30.60
2017,06,08,14,17,40.20
2017,06,08,14,18,30.60
2017,06,08,14,19,27.40
2017,06,08,14,20,25.70
2017,06,08,14,21,29.00
2017,06,08,14,22,32.20
2017,06,08,14,23,32.20
2017,06,08,14,24,33.80
2017,06,08,14,25,32.20
2017,06,08,14,26,24.20
2017,06,08,14,27,32.20
2017,06,08,14,28,35.40
2017,06,08,14,29,41.80
2017,06,08,14,30,29.00
2017,06,08,14,31,25.70
2017,06,08,14,32,40.20
2017,06,08,14,33,33.80
2017,06,08,14,34,43.50
2017,06,08,14,35,32.20
2017,06,08,14,36,29.00
2017,06,08,14,37,35.40
2017,06,08,14,38,33.80
2017,06,08,14,39,24.20
2017,06,08,14,40,33.80
2017,06,08,14,41,29.00
2017,06,08,14,42,30.60
2017,06,08,14,43,37.00
2017,06,08,14,44,40.20
2017,06,08,14,45,32.20
2017,06,08,14,46,38.60
2017,06,08,14,47,32.20
2017,06,08,14,48,35.40
2017,06,08,14,49,43.50
2017,06,08,14,50,38.60
2017,06,08,14,51,53.10
2017,06,08,14,52,37.00
2017,06,08,14,53,41.80
2017,06,08,14,54,32.20
2017,06,08,14,55,38.60
2017,06,08,14,56,46.70
2017,06,08,14,57,40.20
2017,06,08,14,58,32.20
2017,06,08,14,59,43.50
2017,06,08,15,00,41.80
2017,06,08,15,01,49.90
2017,06,08,15,02,35.40
2017,06,08,15,03,29.00
2017,06,08,15,04,33.80
2017,06,08,15,05,35.40
2017,06,08,15,06,29.00
2017,06,08,15,07,43.50
2017,06,08,15,08,38.60
2017,06,08,15,09,35.40
2017,06,08,15,10,38.60
2017,06,08,15,11,45.10
2017,06,08,15,12,27.40
2017,06,08,15,13,24.20
2017,06,08,15,14,29.00
2017,06,08,15,15,25.70
2017,06,08,15,16,33.80
2017,06,08,15,17,30.60
2017,06,08,15,18,38.60
2017,06,08,15,19,41.80
2017,06,08,15,20,43.50
2017,06,08,15,21,40.20
2017,06,08,15,22,43.50
2017,06,08,15,23,33.80
2017,06,08,15,24,32.20
2017,06,08,15,25,41.80
2017,06,08,15,26,53.10
2017,06,08,15,27,41.80
2017,06,08,15,28,32.20
2017,06,08,15,29,25.70
2017,06,08,15,30,37.00
2017,06,08,15,31,40.20
2017,06,08,15,32,48.30
2017,06,08,15,33,37.00
2017,06,08,15,34,32.20
2017,06,08,15,35,41.80
2017,06,08,15,36,30.60
2017,06,08,15,37,46.70
2017,06,08,15,38,48.30
2017,06,08,15,39,43.50
2017,06,08,15,40,38.60
2017,06,08,15,41,46.70
2017,06,08,15,42,51.50
2017,06,08,15,43,38.60
2017,06,08,15,44,41.80
2017,06,08,15,45,37.00
2017,06,08,15,46,41.80
2017,06,08,15,47,54.70
2017,06,08,15,48,33.80
2017,06,08,15,49,27.40
2017,06,08,15,50,45.10
2017,06,08,15,51,48.30
2017,06,08,15,52,41.80
2017,06,08,15,53,38.60
2017,06,08,15,54,29.00
2017,06,08,15,55,38.60
2017,06,08,15,56,35.40
2017,06,08,15,57,29.00
2017,06,08,15,58,32.20
2017,06,08,15,59,30.60
2017,06,08,16,00,32.20
2017,06,08,16,01,33.80
2017,06,08,16,02,33.80
2017,06,08,16,03,37.00
2017,06,08,16,04,46.70
2017,06,08,16,05,46.70
2017,06,08,16,06,40.20
2017,06,08,16,07,35.40
2017,06,08,16,08,38.60
2017,06,08,16,09,37.00
2017,06,08,16,10,40.20
2017,06,08,16,11,41.80
2017,06,08,16,12,41.80
2017,06,08,16,13,38.60
2017,06,08,16,14,46.70
2017,06,08,16,15,32.20
2017,06,08,16,16,40.20
2017,06,08,16,17,51.50
2017,06,08,16,18,51.50
2017,06,08,16,19,43.50
2017,06,08,16,20,29.00
2017,06,08,16,21,53.10
2017,06,08,16,22,27.40
2017,06,08,16,23,20.90
2017,06,08,16,24,30.60
2017,06,08,16,25,40.20
2017,06,08,16,26,40.20
2017,06,08,16,27,49.90
2017,06,08,16,28,46.70
2017,06,08,16,29,29.00
2017,06,08,16,30,38.60
2017,06,08,16,31,29.00
2017,06,08,16,32,27.40
2017,06,08,16,33,33.80
2017,06,08,16,34,43.50
2017,06,08,16,35,41.80
2017,06,08,16,36,35.40
2017,06,08,16,37,32.20
2017,06,08,16,38,38.60
2017,06,08,16,39,27.40
2017,06,08,16,40,30.60
2017,06,08,16,41,41.80
2017,06,08,16,42,24.20
2017,06,08,16,43,35.40
2017,06,08,16,44,33.80
2017,06,08,16,45,46.70
2017,06,08,16,46,33.80
2017,06,08,16,47,37.00
2017,06,08,16,48,35.40
2017,06,08,16,49,40.20
2017,06,08,16,50,32.20
2017,06,08,16,51,35.40
2017,06,08,16,52,29.00
2017,06,08,16,53,22.50
2017,06,08,16,54,32.20
2017,06,08,16,55,35.40
2017,06,08,16,56,32.20
2017,06,08,16,57,30.60
2017,06,08,16,58,38.60
2017,06,08,16,59,27.40
2017,06,08,17,00,38.60
2017,06,08,17,01,46.70
2017,06,08,17,02,40.20
2017,06,08,17,03,49.90
2017,06,08,17,04,48.30
2017,06,08,17,05,48.30
2017,06,08,17,06,40.20
2017,06,08,17,07,35.40
2017,06,08,17,08,27.40
2017,06,08,17,09,30.60
2017,06,08,17,10,45.10
2017,06,08,17,11,41.80
2017,06,08,17,12,30.60
2017,06,08,17,13,27.40
2017,06,08,17,14,37.00
2017,06,08,17,15,30.60
2017,06,08,17,16,35.40
2017,06,08,17,17,35.40
2017,06,08,17,18,33.80
2017,06,08,17,19,29.00
2017,06,08,17,20,29.00
2017,06,08,17,21,25.70
2017,06,08,17,22,33.80
2017,06,08,17,23,41.80
2017,06,08,17,24,40.20
2017,06,08,17,25,29.00
2017,06,08,17,26,38.60
2017,06,08,17,27,35.40
2017,06,08,17,28,20.90
2017,06,08,17,29,25.70
2017,06,08,17,30,33.80
2017,06,08,17,31,30.60
2017,06,08,17,32,27.40
2017,06,08,17,33,30.60
2017,06,08,17,34,33.80
2017,06,08,17,35,35.40
2017,06,08,17,36,20.90
2017,06,08,17,37,35.40
2017,06,08,17,38,20.90
2017,06,08,17,39,30.60
2017,06,08,17,40,38.60
2017,06,08,17,41,38.60
2017,06,08,17,42,38.60
2017,06,08,17,43,38.60
2017,06,08,17,44,30.60
2017,06,08,17,45,27.40
2017,06,08,17,46,45.10
2017,06,08,17,47,30.60
2017,06,08,17,48,29.00
2017,06,08,17,49,37.00
2017,06,08,17,50,32.20
2017,06,08,17,51,29.00
2017,06,08,17,52,32.20
2017,06,08,17,53,25.70
2017,06,08,17,54,35.40
2017,06,08,17,55,22.50
2017,06,08,17,56,38.60
2017,06,08,17,57,32.20
2017,06,08,17,58,25.70
2017,06,08,17,59,40.20
2017,06,08,18,00,37.00
2017,06,08,18,01,30.60
2017,06,08,18,02,29.00
2017,06,08,18,03,38.60
2017,06,08,18,04,30.60
2017,06,08,18,05,38.60
2017,06,08,18,06,30.60
2017,06,08,18,07,33.80
2017,06,08,18,08,30.60
2017,06,08,18,09,43.50
2017,06,08,18,10,53.10
2017,06,08,18,11,25.70
2017,06,08,18,12,25.70
2017,06,08,18,13,41.80
2017,06,08,18,14,32.20
2017,06,08,18,15,24.20
2017,06,08,18,16,19.30
2017,06,08,18,17,37.00
2017,06,08,18,18,24.20
2017,06,08,18,19,37.00
2017,06,08,18,20,41.80
2017,06,08,18,21,45.10
2017,06,08,18,22,33.80
2017,06,08,18,23,22.50
2017,06,08,18,24,22.50
2017,06,08,18,25,35.40
2017,06,08,18,26,27.40
2017,06,08,18,27,25.70
2017,06,08,18,28,24.20
2017,06,08,18,29,24.20
2017,06,08,18,30,33.80
2017,06,08,18,31,32.20
2017,06,08,18,32,45.10
2017,06,08,18,33,33.80
2017,06,08,18,34,30.60
2017,06,08,18,35,32.20
2017,06,08,18,36,17.70
2017,06,08,18,37,27.40
2017,06,08,18,38,17.70
2017,06,08,18,39,27.40
2017,06,08,18,40,27.40
2017,06,08,18,41,30.60
2017,06,08,18,42,22.50
2017,06,08,18,43,29.00
2017,06,08,18,44,33.80
2017,06,08,18,45,29.00
2017,06,08,18,46,22.50
2017,06,08,18,47,30.60
2017,06,08,18,48,35.40
2017,06,08,18,49,38.60
2017,06,08,18,50,20.90
2017,06,08,18,51,20.90
2017,06,08,18,52,27.40
2017,06,08,18,53,29.00
2017,06,08,18,54,22.50
2017,06,08,18,55,22.50
2017,06,08,18,56,11.30
2017,06,08,18,57,17.70
2017,06,08,18,58,25.70
2017,06,08,18,59,29.00
2017,06,08,19,00,22.50
2017,06,08,19,01,30.60
2017,06,08,19,02,40.20
2017,06,08,19,03,35.40
2017,06,08,19,04,30.60
2017,06,08,19,05,22.50
2017,06,08,19,06,25.70
2017,06,08,19,07,29.00
2017,06,08,19,08,24.20
2017,06,08,19,09,25.70
2017,06,08,19,10,19.30
2017,06,08,19,11,30.60
2017,06,08,19,12,27.40
2017,06,08,19,13,22.50
2017,06,08,19,14,30.60
2017,06,08,19,15,29.00
2017,06,08,19,16,17.70
2017,06,08,19,17,20.90
2017,06,08,19,18,27.40
2017,06,08,19,19,24.20
2017,06,08,19,20,17.70
2017,06,08,19,21,27.40
2017,06,08,19,22,25.70
2017,06,08,19,23,32.20
2017,06,08,19,24,27.40
2017,06,08,19,25,29.00
2017,06,08,19,26,22.50
2017,06,08,19,27,25.70
2017,06,08,19,28,32.20
2017,06,08,19,29,30.60
2017,06,08,19,30,29.00
2017,06,08,19,31,22.50
2017,06,08,19,32,20.90
2017,06,08,19,33,19.30
2017,06,08,19,34,14.50
2017,06,08,19,35,25.70
2017,06,08,19,36,25.70
2017,06,08,19,37,16.10
2017,06,08,19,38,17.70
2017,06,08,19,39,29.00
2017,06,08,19,40,29.00
2017,06,08,19,41,25.70
2017,06,08,19,42,27.40
2017,06,08,19,43,22.50
2017,06,08,19,44,25.70
2017,06,08,19,45,25.70
2017,06,08,19,46,25.70
2017,06,08,19,47,32.20
2017,06,08,19,48,35.40
2017,06,08,19,49,29.00
2017,06,08,19,50,30.60
2017,06,08,19,51,29.00
2017,06,08,19,52,25.70
2017,06,08,19,53,24.20
2017,06,08,19,54,25.70
2017,06,08,19,55,25.70
2017,06,08,19,56,22.50
2017,06,08,19,57,20.90
2017,06,08,19,58,14.50
2017,06,08,19,59,6.40
2017,06,08,20,00,14.50
2017,06,08,20,01,27.40
2017,06,08,20,02,20.90
2017,06,08,20,03,17.70
2017,06,08,20,04,11.30
2017,06,08,20,05,20.90
2017,06,08,20,06,24.20
2017,06,08,20,07,20.90
2017,06,08,20,08,19.30
2017,06,08,20,09,19.30
2017,06,08,20,10,24.20
2017,06,08,20,11,22.50
2017,06,08,20,12,14.50
2017,06,08,20,13,17.70
2017,06,08,20,14,9.60
2017,06,08,20,15,24.20
2017,06,08,20,16,25.70
2017,06,08,20,17,24.20
2017,06,08,20,18,16.10
2017,06,08,20,19,16.10
2017,06,08,20,20,17.70
2017,06,08,20,21,14.50
2017,06,08,20,22,20.90
2017,06,08,20,23,20.90
2017,06,08,20,24,22.50
2017,06,08,20,25,14.50
2017,06,08,20,26,11.30
2017,06,08,20,27,17.70
2017,06,08,20,28,14.50
2017,06,08,20,29,25.70
2017,06,08,20,30,17.70
2017,06,08,20,31,16.10
2017,06,08,20,32,11.30
2017,06,08,20,33,9.60
2017,06,08,20,34,17.70
2017,06,08,20,35,11.30
2017,06,08,20,36,14.50
2017,06,08,20,37,14.50
2017,06,08,20,38,8.10
2017,06,08,20,39,8.10
2017,06,08,20,40,11.30
2017,06,08,20,41,14.50
2017,06,08,20,42,16.10
2017,06,08,20,43,16.10
2017,06,08,20,44,9.60
2017,06,08,20,45,11.30
2017,06,08,20,46,11.30
2017,06,08,20,47,12.90
2017,06,08,20,48,11.30
2017,06,08,20,49,9.60
2017,06,08,20,50,16.10
2017,06,08,20,51,16.10
2017,06,08,20,52,16.10
2017,06,08,20,53,16.10
2017,06,08,20,54,19.30
2017,06,08,20,55,14.50
2017,06,08,20,56,9.60
2017,06,08,20,57,12.90
2017,06,08,20,58,9.60
2017,06,08,20,59,11.30
2017,06,08,21,00,16.10
2017,06,08,21,01,16.10
2017,06,08,21,02,9.60
2017,06,08,21,03,9.60
2017,06,08,21,04,16.10
2017,06,08,21,05,19.30
2017,06,08,21,06,19.30
2017,06,08,21,07,19.30
2017,06,08,21,08,9.60
2017,06,08,21,09,9.60
2017,06,08,21,10,9.60
2017,06,08,21,11,11.30
2017,06,08,21,12,11.30
2017,06,08,21,13,14.50
2017,06,08,21,14,11.30
2017,06,08,21,15,9.60
2017,06,08,21,16,9.60
2017,06,08,21,17,11.30
2017,06,08,21,19,4.80
2017,06,08,21,20,11.30
2017,06,08,21,21,8.10
2017,06,08,21,22,8.10
2017,06,08,21,23,6.40
2017,06,08,21,24,6.40
2017,06,08,21,25,3.20
2017,06,08,21,26,3.20
2017,06,08,21,31,8.10
2017,06,08,21,32,8.10
2017,06,08,21,33,3.20
2017,06,08,21,34,1.60
2017,06,08,21,35,3.20
2017,06,08,21,38,3.20
2017,06,08,21,39,3.20
2017,06,08,21,53,1.60
2017,06,08,21,54,4.80
2017,06,08,21,55,3.20
2017,06,08,21,56,3.20
2017,06,08,21,57,3.20
2017,06,08,22,14,3.20
2017,06,08,22,16,3.20
2017,06,08,22,17,3.20
2017,06,08,22,21,3.20
2017,06,08,22,22,3.20
2017,06,08,22,23,4.80
2017,06,08,22,24,3.20
2017,06,08,22,31,1.60
2017,06,08,22,37,6.40
2017,06,08,22,38,6.40
2017,06,08,22,39,6.40
2017,06,08,22,40,4.80
2017,06,08,22,41,6.40
2017,06,08,22,42,1.60
2017,06,08,23,07,3.20
2017,06,08,23,08,4.80
2017,06,08,23,09,6.40
2017,06,08,23,10,4.80
2017,06,08,23,11,6.40
2017,06,08,23,12,6.40
2017,06,08,23,13,6.40
2017,06,08,23,14,8.10
2017,06,08,23,15,8.10
2017,06,08,23,16,6.40
2017,06,08,23,17,6.40
2017,06,08,23,18,4.80
2017,06,08,23,19,8.10
2017,06,08,23,20,3.20
2017,06,08,23,21,8.10
2017,06,08,23,22,4.80
2017,06,08,23,23,3.20
2017,06,08,23,24,3.20
2017,06,08,23,27,3.20
2017,06,08,23,28,3.20
2017,06,08,23,46,3.20
2017,06,08,23,48,4.80
2017,06,08,23,49,3.20
